Location: Tr�vern
(48.0333°N, 4.6000°W)
Time: 17:38:36
(UTC+00:00)

ATLAS 5 CENTAUR R/B - Pass Details

Date: 14 July 2020
Orbit: 534 x 1124 km, 63.4° (Epoch: 06 August)

Event Time Altitude Azimuth Distance (km) Brightness Sun altitude
Rises 01:32:40 0° 320° (NW) 3,159 5.7 -18.7°
Reaches altitude 10° 01:35:05 10° 330° (NNW) 2,325 5.1 -18.6°
Maximum altitude 01:40:03 35° 36° (NE) 1,357 3.9 -18.3°
Drops below altitude 10° 01:45:46 10° 101° (ESE) 2,694 4.9 -18.0°
Sets 01:48:46 0° 110° (ESE) 3,729 5.6 -17.8°
